Weather History for KLUM - June, 2014

Change the Weather History Date:

Friday, June 6, 2014

  Actual Average (KEAU) Record (KEAU)
Temperature  
Mean Temperature 70 °F 64 °F  
Max Temperature 82 °F 76 °F 95 °F (1950)
Min Temperature 57 °F 52 °F 32 °F (1897)
Degree Days  
Heating Degree Days 0 3  
Month to date heating degree days 23  
Since 1 June heating degree days 23  
Since 1 July heating degree days 7921  
Cooling Degree Days 4 2  
Month to date cooling degree days 12  
Year to date cooling degree days 44  
Since 1 June cooling degree days 12  
Growing Degree Days 20 (Base 50)    
Moisture  
Dew Point 58 °F    
Average Humidity 70    
Maximum Humidity 98    
Minimum Humidity 36    
Precipitation  
Precipitation 0.04 in 0.13 in 2.80 in (1915)
Month to date precipitation 0.78  
Year to date precipitation 10.42  
Snow  
Snow 0.00 in 0.00 in 0.00 in ()
Month to date snowfall 0.0  
Since 1 June snowfall 0.0  
Since 1 July snowfall 46.8  
Snow Depth -    
Sea Level Pressure  
Sea Level Pressure 29.93 in    
Wind  
Wind Speed 3 mph (SSE)    
Max Wind Speed 9 mph    
Max Gust Speed -    
Visibility 10 miles    
Events Rain , Thunderstorm    
T = Trace of Precipitation, MM = Missing Value Source: NWS Daily Summary

Daily Weather History Graph

Daily Weather History Graph

Search for Another Location

Airport or City:

Trip Planner

Search our weather history database for the weather conditions in past years. The results will help you decide how hot, cold, wet, or windy it might be!

Date:

Astronomy

Jun. 06, 2014 Rise Set
Actual Time 5:22 AM CDT 8:50 PM CDT
Civil Twilight 4:45 AM CDT 9:27 PM CDT
Nautical Twilight 3:57 AM CDT 10:15 PM CDT
Astronomical Twilight 2:55 AM CDT 11:18 PM CDT
Moon 1:53 PM CDT (6/6) 1:31 AM CDT (6/6)
Length of Visible Light 16h 41m
Length of Day
15h 28m
First Quarter, 58% of the Moon is Illuminated
Jun 6
First Quarter
Jun 12
Full
Jun 19
Last Quarter
Jun 27
New
Jul 5
First Quarter

Hourly Weather History & Observations

Time (CDT) Temp. Heat Index Dew Point Humidity Pressure Visibility Wind Dir Wind Speed Gust Speed Precip Events Conditions
12:15 AM 61.3 °F - 60.6 °F 97% 29.92 in 10.0 mi East 3.5 mph - 0.01 in Rain Rain
12:35 AM 60.8 °F - 60.1 °F 97% 29.92 in 10.0 mi SE 4.6 mph - 0.01 in Thunderstorm Overcast
12:55 AM 60.6 °F - 60.1 °F 98% 29.94 in 10.0 mi NW 9.2 mph - 0.01 in   Overcast
1:15 AM 60.8 °F - 60.1 °F 97% 29.92 in 10.0 mi ESE 5.8 mph - 0.01 in Rain Light Rain
1:35 AM 60.6 °F - 59.9 °F 97% 29.91 in 10.0 mi SE 3.5 mph - 0.01 in   Mostly Cloudy
1:55 AM 59.9 °F - 59.0 °F 97% 29.91 in 10.0 mi SSE 3.5 mph - 0.01 in   Scattered Clouds
2:15 AM 60.6 °F - 59.0 °F 94% 29.91 in 10.0 mi Calm Calm - N/A   Mostly Cloudy
2:35 AM 60.8 °F - 59.0 °F 94% 29.91 in 10.0 mi Calm Calm - N/A   Scattered Clouds
2:55 AM 60.8 °F - 59.2 °F 94% 29.91 in 10.0 mi Calm Calm - N/A   Scattered Clouds
3:15 AM 60.4 °F - 59.0 °F 95% 29.91 in 10.0 mi East 6.9 mph - N/A   Scattered Clouds
3:35 AM 59.9 °F - 58.5 °F 95% 29.91 in 10.0 mi East 3.5 mph - N/A   Mostly Cloudy
3:55 AM 59.2 °F - 58.1 °F 96% 29.91 in 10.0 mi Calm Calm - 0.02 in   Scattered Clouds
4:15 AM 59.2 °F - 57.9 °F 96% 29.91 in 10.0 mi Calm Calm - N/A   Clear
4:35 AM 58.6 °F - 57.6 °F 96% 29.91 in 7.0 mi East 3.5 mph - N/A   Clear
4:55 AM 59.0 °F - 58.1 °F 97% 29.91 in 7.0 mi East 3.5 mph - N/A   Clear
5:15 AM 58.5 °F - 57.6 °F 97% 29.92 in 5.0 mi ESE 3.5 mph - N/A   Clear
5:35 AM 57.9 °F - 57.2 °F 97% 29.92 in 5.0 mi SE 3.5 mph - N/A   Clear
5:55 AM 57.6 °F - 56.8 °F 97% 29.93 in 7.0 mi ESE 3.5 mph - N/A   Clear
6:15 AM 58.3 °F - 57.4 °F 97% 29.93 in 7.0 mi ESE 3.5 mph - N/A   Clear
6:35 AM 59.4 °F - 58.1 °F 96% 29.93 in 10.0 mi SE 4.6 mph - N/A   Clear
6:55 AM 60.3 °F - 58.5 °F 94% 29.93 in 10.0 mi ESE 4.6 mph - N/A   Clear
7:15 AM 61.2 °F - 59.0 °F 93% 29.93 in 10.0 mi ESE 4.6 mph - N/A   Clear
7:35 AM 62.6 °F - 59.2 °F 89% 29.94 in 10.0 mi Calm Calm - N/A   Clear
7:55 AM 63.5 °F - 59.7 °F 87% 29.95 in 10.0 mi SSW 3.5 mph - N/A   Clear
8:15 AM 64.6 °F - 60.1 °F 85% 29.96 in 10.0 mi SW 3.5 mph - N/A   Clear
8:35 AM 65.7 °F - 60.8 °F 84% 29.96 in 10.0 mi South 3.5 mph - N/A   Clear
8:55 AM 66.6 °F - 61.2 °F 83% 29.96 in 10.0 mi SSW 4.6 mph - N/A   Clear
9:15 AM 67.6 °F - 62.1 °F 82% 29.96 in 10.0 mi SW 3.5 mph - N/A   Clear
9:35 AM 68.7 °F - 62.4 °F 80% 29.96 in 10.0 mi Calm Calm - N/A   Clear
9:55 AM 69.3 °F - 62.4 °F 79% 29.95 in 10.0 mi Calm Calm - N/A   Clear
10:15 AM 70.5 °F - 63.0 °F 77% 29.95 in 10.0 mi Calm Calm - N/A   Clear
10:35 AM 71.6 °F - 62.4 °F 73% 29.95 in 10.0 mi Calm Calm - N/A   Clear
10:55 AM 73.0 °F - 63.5 °F 72% 29.95 in 10.0 mi Calm Calm - N/A   Clear
11:15 AM 73.8 °F - 62.8 °F 68% 29.95 in 10.0 mi Calm Calm - N/A   Scattered Clouds
11:35 AM 74.1 °F - 63.3 °F 69% 29.95 in 10.0 mi Calm Calm - N/A   Scattered Clouds
11:55 AM 75.6 °F - 63.5 °F 66% 29.94 in 10.0 mi SSE 4.6 mph - N/A   Scattered Clouds
12:15 PM 75.6 °F - 61.7 °F 62% 29.94 in 10.0 mi Calm Calm - N/A   Scattered Clouds
12:35 PM 74.5 °F - 60.4 °F 61% 29.95 in 10.0 mi WSW 5.8 mph - N/A   Clear
12:55 PM 76.6 °F - 59.0 °F 54% 29.94 in 10.0 mi Calm Calm - N/A   Clear
1:15 PM 77.5 °F - 60.4 °F 55% 29.94 in 10.0 mi South 4.6 mph - N/A   Clear
1:35 PM 78.3 °F - 59.4 °F 52% 29.93 in 10.0 mi South 4.6 mph - N/A   Clear
1:55 PM 79.2 °F - 57.9 °F 48% 29.93 in 10.0 mi Calm Calm - N/A   Clear
2:15 PM 79.0 °F - 58.1 °F 49% 29.93 in 10.0 mi South 5.8 mph - N/A   Clear
2:35 PM 79.7 °F - 57.4 °F 46% 29.93 in 10.0 mi ESE 3.5 mph - N/A   Clear
2:55 PM 81.0 °F 80.8 °F 55.9 °F 42% 29.93 in 10.0 mi NW 3.5 mph - N/A   Scattered Clouds
3:15 PM 80.8 °F 81.1 °F 58.3 °F 46% 29.93 in 10.0 mi South 5.8 mph - N/A   Scattered Clouds
3:35 PM 80.6 °F 80.4 °F 54.1 °F 40% 29.93 in 10.0 mi Calm Calm - N/A   Scattered Clouds
3:55 PM 79.0 °F - 53.4 °F 41% 29.93 in 10.0 mi Calm Calm - N/A   Scattered Clouds
4:15 PM 81.9 °F 81.9 °F 58.3 °F 45% 29.93 in 10.0 mi SW 3.5 mph - N/A   Mostly Cloudy
4:35 PM 78.8 °F - 54.3 °F 43% 29.93 in 10.0 mi Calm Calm - N/A   Scattered Clouds
4:55 PM 82.0 °F 81.5 °F 55.8 °F 40% 29.92 in 10.0 mi Calm Calm - N/A   Clear
5:15 PM 81.5 °F 81.0 °F 55.2 °F 40% 29.91 in 10.0 mi South 5.8 mph - N/A   Clear
5:35 PM 81.1 °F - 52.2 °F 36% 29.90 in 10.0 mi Calm Calm - N/A   Clear
5:55 PM 81.5 °F 80.9 °F 54.1 °F 39% 29.91 in 10.0 mi SSE 3.5 mph - N/A   Clear
6:15 PM 80.8 °F 80.5 °F 54.5 °F 40% 29.91 in 10.0 mi SSW 3.5 mph - N/A   Scattered Clouds
6:35 PM 81.1 °F - 51.8 °F 36% 29.91 in 10.0 mi Calm Calm - N/A   Clear
6:55 PM 80.4 °F 80.1 °F 53.2 °F 39% 29.91 in 10.0 mi SSW 4.6 mph - N/A   Clear
7:15 PM 78.1 °F - 51.4 °F 39% 29.92 in 10.0 mi West 3.5 mph - N/A   Clear
7:35 PM 78.6 °F - 52.0 °F 39% 29.92 in 10.0 mi West 3.5 mph - N/A   Clear
7:55 PM 78.6 °F - 52.2 °F 40% 29.92 in 10.0 mi Calm Calm - N/A   Clear
8:15 PM 77.5 °F - 52.3 °F 41% 29.93 in 10.0 mi Calm Calm - N/A   Clear
8:35 PM 75.6 °F - 54.9 °F 48% 29.94 in 10.0 mi Calm Calm - N/A   Scattered Clouds
8:55 PM 74.5 °F - 57.2 °F 55% 29.95 in 10.0 mi Calm Calm - N/A   Mostly Cloudy
9:15 PM 74.5 °F - 57.7 °F 56% 29.95 in 10.0 mi Calm Calm - N/A   Scattered Clouds
9:35 PM 71.6 °F - 59.0 °F 64% 29.97 in 10.0 mi North 5.8 mph - N/A   Scattered Clouds
9:55 PM 71.1 °F - 59.7 °F 67% 29.98 in 10.0 mi NNW 6.9 mph - N/A   Scattered Clouds
10:15 PM 69.1 °F - 59.9 °F 72% 29.98 in 10.0 mi NW 6.9 mph - N/A   Clear
10:35 PM 69.3 °F - 59.5 °F 71% 29.98 in 10.0 mi Calm Calm - N/A   Clear
10:55 PM 69.8 °F - 58.8 °F 68% 29.96 in 10.0 mi NNE 5.8 mph - N/A   Clear
11:15 PM 68.7 °F - 60.6 °F 75% 29.95 in 10.0 mi East 5.8 mph - N/A   Scattered Clouds
11:35 PM 68.7 °F - 60.4 °F 75% 29.94 in 10.0 mi ESE 3.5 mph - N/A   Clear
11:55 PM 68.0 °F - 59.4 °F 74% 29.94 in 10.0 mi ENE 4.6 mph - N/A   Clear